Regional Weather Roundup
Issued by NWS

Home | Current Version | Previous Version | Text Only | Print | Product List | Glossary Off
Versions: 1 2 3 4 5 6 7 8 9 10 11 12 13 14 15 16 17 18 19 20 21 22 23 24 25 26 27 28 29 30 31 32 33 34 35 36 37 38 39 40 41 42 43 44 45 46 47 48 49 50

000
ASUS43 KIND 202109
RWRIN

WEATHER ROUNDUP FOR INDIANA
NATIONAL WEATHER SERVICE INDIANAPOLIS IN
500 PM EDT THU JUL 20 2017

NOTE: "FAIR" INDICATES FEW OR NO CLOUDS BELOW 12,000 FEET WITH NO
SIGNIFICANT WEATHER AND/OR OBSTRUCTIONS TO VISIBILITY.

* - STATION DOES NOT REPORT WEATHER SUCH AS PRECIPITATION OR FOG.

+ - STATION NOT QUALITY CONTROLLED BY THE NATIONAL WEATHER SERVICE.
    USE DATA WITH CAUTION...ESPECIALLY DEWPOINT AND RELATIVE
    HUMIDITY OBSERVATIONS.

INZ001>003-010>013-019-020-202200-
NORTHWEST INDIANA

CITY           SKY/WX    TMP DP  RH WIND       PRES   REMARKS
GARY /AIRPORT/ PTSUNNY   90  72  55 W14       29.96R HX  96
KNOX *+          N/A    N/A N/A N/A MISG        N/A
LA PORTE +     CLOUDY    85  75  73 NW5       29.97S
MICHIGAN CITY+ CLOUDY    79  72  78 N6        29.98R
MONTICELLO +   SUNNY     87  76  70 SW10G21   29.96S HX  97
RENSSELAER +   MOSUNNY   86  73  66 SW13G18   29.96S
VALPARAISO     CLOUDY    87  76  69 W9        29.96S HX  97

$$

LMZ046-743>745-202200-
SOUTHERN LAKE MICHIGAN

STATION/POSITION TIME  TEMP    WIND        PRES    WAVE
                       AIR SEA DIR/SP/G            HT
                 (UTC) (F)     (DEG/KT/KT) (MB)    (FT)
BURNS HARBOR     2040   78     360/  8/ 10 1014.9R
MICHIGAN CITY    2040   74      50/ 13/ 13   N/A
5NW MICH CITY    2100   75 75   80/  8/ 10   N/A     1

$$

INZ004-005-014>016-021>024-202200-
NORTH CENTRAL INDIANA

CITY           SKY/WX    TMP DP  RH WIND       PRES   REMARKS
ELKHART        PTSUNNY   84  72  65 MISG      29.98S
GOSHEN         CLOUDY    85  71  63 W8        29.97
LOGANSPORT +   CLOUDY    88  72  58 W15       29.97F
PERU/GRISSOM   MOSUNNY   88  74  62 W15       29.96F HX  96
ROCHESTER +    MOSUNNY   90  73  58 W9        29.98R HX  98
SOUTH BEND     CLOUDY    84  73  69 NW10      29.98R
WARSAW +       PTSUNNY   84  73  70 W6        29.99S

$$

INZ006>009-017-018-025>027-202200-
NORTHEAST INDIANA

CITY           SKY/WX    TMP DP  RH WIND       PRES   REMARKS
ANGOLA *+      CLOUDY    82  79  89 SW3       29.99F
AUBURN +       CLOUDY    84  68  58 W5        30.00S
FORT WAYNE     PTSUNNY   87  72  60 NW6       29.99S
HUNTINGTON +   MOSUNNY   85  74  69 NW3       29.98S
KENDALLVILLE + CLOUDY   N/A N/A N/A W7        30.00S

$$

INZ028-029-035-036-043>045-051>053-202200-
WEST CENTRAL INDIANA

CITY           SKY/WX    TMP DP  RH WIND       PRES   REMARKS
GREENCASTLE +  CLOUDY    86  77  74 S5        30.01F HX  97
LAFAYETTE      MOSUNNY   86  76  71 SW10      29.97S HX  96
TERRE HAUTE    CLOUDY    92  77  61 SW12      29.99F HX 105

$$

INZ030>032-037>040-046>048-054>057-064-065-202200-
CENTRAL INDIANA

CITY           SKY/WX    TMP DP  RH WIND       PRES   REMARKS
CP ATTERBURY + PTSUNNY   86  73  66 SW9       30.01S
COLUMBUS       SUNNY     90  70  51 SW12      30.01F HX  95
FRANKFORT +    CLOUDY    89  77  68 SW10      30.01F HX 101
GREENWOOD *+   PTSUNNY   87  74  66 W7        30.01F HX  95
INDIANAPOLIS   CLOUDY    89  76  65 SW14G22   29.99F HX 100
-EAGLE CREEK   CLOUDY    88  74  63 SW12G17   29.99F HX  96
KOKOMO +       MOSUNNY   88  73  61 W17       29.99S HX  95
MARION +       MOSUNNY   88  73  62 W10G16    30.00R HX  96
MT COMFORT *+  MOSUNNY   88  73  62 SW10G16   30.01R HX  96
SHELBYVILLE    MOSUNNY   89  75  63 SW10      30.00S HX  99
ZIONSVILLE +   PTSUNNY   86  75  70 W12       30.01S

$$

INZ033-034-041-042-049-050-058-059-202200-
EAST CENTRAL INDIANA

CITY           SKY/WX    TMP DP  RH WIND       PRES   REMARKS
MUNCIE         CLOUDY    89  72  56 W9        30.00S HX  96
RICHMOND +     PTSUNNY   82  75  78 W8        30.05S

$$

INZ060-061-067>069-081>083-085>088-202200-
SOUTHWEST INDIANA

CITY           SKY/WX    TMP DP  RH WIND       PRES   REMARKS
EVANSVILLE     CLOUDY    94  68  42 SW10      30.03F HX  98
HUNTINGBURG *+ CLOUDY    90  76  63 S9        30.03F HX 101

$$

INZ062-063-066-070>080-084-089>092-202200-
SOUTH CENTRAL AND SOUTHEAST INDIANA

CITY           SKY/WX    TMP DP  RH WIND       PRES   REMARKS
BEDFORD +      PTSUNNY   91  70  49 SW12      30.01F HX  97
BLOOMINGTON    MOSUNNY   88  74  63 SW8       30.02F HX  96
MADISON *+     MOSUNNY   91  70  49 SW10      30.04F HX  97
NORTH VERNON + MOSUNNY   88  72  58 SW9       30.02F
SEYMOUR +      MOSUNNY   90  72  55 SW8       30.01  HX  96

$$





USA.gov is the U.S. government's official web portal to all federal, state and local government web resources and services.